Time,TemperatureF,DewpointF,PressureIn,WindDirection,WindDirectionDegrees,WindSpeedMPH,WindSpeedGustMPH,Humidity,HourlyPrecipIn,Conditions,Clouds,dailyrainin,SoftwareType,DateUTC
2013-05-23 19:47:00,47.8,38.9,29.68,WSW,252,8.3,8.3,71,0.04,,---,0.08,VWS V14.01,2013-05-24 02:47:00,
2013-05-23 19:52:00,47.8,39.3,29.68,SSW,211,5.8,5.8,72,0.04,,---,0.08,VWS V14.01,2013-05-24 02:52:00,
2013-05-23 19:57:00,47.8,39.6,29.68,SW,226,6.3,6.3,73,0.08,,---,0.12,VWS V14.01,2013-05-24 02:57:00,
2013-05-23 20:02:00,47.7,39.4,29.68,WSW,239,5.8,8.1,73,0.08,,---,0.12,VWS V14.01,2013-05-24 03:02:00,
2013-05-23 20:07:00,47.7,39.8,29.68,SSW,206,4.9,4.9,74,0.08,,---,0.12,VWS V14.01,2013-05-24 03:07:00,
2013-05-23 20:12:00,47.7,39.8,29.68,SW,222,5.8,5.8,74,0.08,,---,0.12,VWS V14.01,2013-05-24 03:12:00,
2013-05-23 20:17:00,47.7,40.1,29.68,SW,214,5.8,5.8,75,0.08,,---,0.12,VWS V14.01,2013-05-24 03:17:00,
2013-05-23 20:22:00,47.7,40.1,29.68,SW,225,5.4,5.4,75,0.08,,---,0.12,VWS V14.01,2013-05-24 03:22:00,
2013-05-23 20:27:00,47.7,40.1,29.68,SSW,202,5.4,6.3,75,0.04,,---,0.12,VWS V14.01,2013-05-24 03:27:00,
2013-05-23 20:32:00,47.5,40.0,29.68,SW,233,5.4,6.3,75,0.08,,---,0.16,VWS V14.01,2013-05-24 03:32:00,
2013-05-23 20:37:00,47.5,40.0,29.68,SW,217,10.5,10.5,75,0.08,,---,0.16,VWS V14.01,2013-05-24 03:37:00,
2013-05-23 20:42:00,47.5,40.0,29.68,SW,220,5.4,6.3,75,0.08,,---,0.16,VWS V14.01,2013-05-24 03:42:00,
2013-05-23 20:47:00,47.5,40.0,29.68,SW,216,10.1,10.1,75,0.08,,---,0.16,VWS V14.01,2013-05-24 03:47:00,
2013-05-23 20:52:00,47.5,40.0,29.68,SSW,207,6.3,6.3,75,0.08,,---,0.16,VWS V14.01,2013-05-24 03:52:00,
2013-05-23 20:57:00,47.5,39.6,29.68,SW,216,8.3,10.1,74,0.04,,---,0.16,VWS V14.01,2013-05-24 03:57:00,
2013-05-23 21:01:00,47.3,39.5,29.68,SW,229,8.3,8.3,74,0.04,,---,0.16,VWS V14.01,2013-05-24 04:01:00,
2013-05-23 21:06:00,47.3,39.1,29.68,SW,222,6.7,6.7,73,0.04,,---,0.16,VWS V14.01,2013-05-24 04:06:00,
2013-05-23 21:11:00,47.3,38.7,29.68,SW,218,10.1,10.1,72,0.08,,---,0.20,VWS V14.01,2013-05-24 04:11:00,
2013-05-23 21:16:00,47.3,38.4,29.68,SW,233,8.3,8.3,71,0.08,,---,0.20,VWS V14.01,2013-05-24 04:16:00,
2013-05-23 21:21:00,47.3,38.0,29.68,SW,234,8.7,8.7,70,0.08,,---,0.20,VWS V14.01,2013-05-24 04:21:00,
2013-05-23 21:26:00,47.3,38.0,29.68,SSW,211,7.6,8.1,70,0.08,,---,0.20,VWS V14.01,2013-05-24 04:26:00,
2013-05-23 21:31:00,47.3,38.0,29.68,SW,224,10.5,10.5,70,0.04,,---,0.20,VWS V14.01,2013-05-24 04:31:00,
2013-05-23 21:36:00,47.3,38.4,29.68,SW,230,10.5,10.5,71,0.04,,---,0.20,VWS V14.01,2013-05-24 04:36:00,
2013-05-23 21:41:00,47.3,38.4,29.68,SW,214,7.6,10.1,71,0.04,,---,0.20,VWS V14.01,2013-05-24 04:41:00,
2013-05-23 21:46:00,47.3,38.7,29.68,SW,220,7.2,12.3,72,0.04,,---,0.20,VWS V14.01,2013-05-24 04:46:00,
2013-05-23 21:51:00,47.3,38.7,29.68,SSW,209,8.3,8.3,72,0.04,,---,0.20,VWS V14.01,2013-05-24 04:51:00,
2013-05-23 21:56:00,47.3,39.1,29.68,WSW,248,5.4,5.8,73,0.04,,---,0.20,VWS V14.01,2013-05-24 04:56:00,
2013-05-23 22:01:00,47.3,39.1,29.68,SW,215,6.7,8.7,73,0.04,,---,0.20,VWS V14.01,2013-05-24 05:01:00,
2013-05-23 22:06:00,47.3,39.5,29.68,SSW,206,7.6,7.6,74,0.04,,---,0.20,VWS V14.01,2013-05-24 05:06:00,
2013-05-23 22:11:00,47.5,39.6,29.68,SSW,213,7.2,7.6,74,0.04,,---,0.20,VWS V14.01,2013-05-24 05:11:00,
2013-05-23 22:16:00,47.5,39.6,29.68,SW,220,8.1,8.1,74,0.00,,---,0.20,VWS V14.01,2013-05-24 05:16:00,
2013-05-23 22:21:00,47.5,40.0,29.68,SSW,212,5.4,8.3,75,0.00,,---,0.20,VWS V14.01,2013-05-24 05:21:00,
2013-05-23 22:26:00,47.5,40.0,29.68,SW,214,6.3,8.1,75,0.00,,---,0.20,VWS V14.01,2013-05-24 05:26:00,
2013-05-23 22:31:00,47.5,40.0,29.68,SW,219,6.3,8.7,75,0.00,,---,0.20,VWS V14.01,2013-05-24 05:31:00,
2013-05-23 22:36:00,47.5,40.0,29.68,SW,232,6.3,8.1,75,0.00,,---,0.20,VWS V14.01,2013-05-24 05:36:00,
2013-05-23 22:41:00,47.5,40.3,29.68,WSW,241,5.4,7.6,76,0.00,,---,0.20,VWS V14.01,2013-05-24 05:41:00,
2013-05-23 22:46:00,47.5,40.3,29.68,WSW,248,8.7,8.7,76,0.00,,---,0.20,VWS V14.01,2013-05-24 05:46:00,
2013-05-23 22:51:00,47.5,40.3,29.68,West,265,7.6,8.1,76,0.04,,---,0.24,VWS V14.01,2013-05-24 05:51:00,
2013-05-23 22:56:00,47.5,40.3,29.68,SW,217,6.3,8.3,76,0.04,,---,0.24,VWS V14.01,2013-05-24 05:56:00,
2013-05-23 23:01:00,47.7,40.5,29.68,SW,226,6.3,7.6,76,0.04,,---,0.24,VWS V14.01,2013-05-24 06:01:00,
2013-05-23 23:06:00,47.7,40.5,29.68,SSW,201,8.7,8.7,76,0.04,,---,0.24,VWS V14.01,2013-05-24 06:06:00,
2013-05-23 23:11:00,47.7,40.5,29.68,WSW,247,8.1,8.1,76,0.04,,---,0.24,VWS V14.01,2013-05-24 06:11:00,
2013-05-23 23:16:00,47.7,40.5,29.68,SW,233,7.2,7.6,76,0.04,,---,0.24,VWS V14.01,2013-05-24 06:16:00,
2013-05-23 23:21:00,47.7,40.5,29.68,WSW,240,6.7,6.7,76,0.04,,---,0.24,VWS V14.01,2013-05-24 06:21:00,
2013-05-23 23:26:00,47.7,40.5,29.68,West,263,5.4,5.4,76,0.04,,---,0.24,VWS V14.01,2013-05-24 06:26:00,
2013-05-23 23:31:00,47.7,40.5,29.68,WSW,247,4.9,5.8,76,0.04,,---,0.24,VWS V14.01,2013-05-24 06:31:00,
2013-05-23 23:36:00,47.7,40.5,29.68,WSW,244,5.8,6.3,76,0.04,,---,0.24,VWS V14.01,2013-05-24 06:36:00,
2013-05-23 23:41:00,47.7,40.5,29.68,WSW,245,4.0,4.9,76,0.04,,---,0.24,VWS V14.01,2013-05-24 06:41:00,
2013-05-23 23:46:00,47.8,40.7,29.68,WSW,244,5.8,7.2,76,0.04,,---,0.24,VWS V14.01,2013-05-24 06:46:00,
2013-05-23 23:51:00,47.8,40.7,29.68,SW,224,5.8,8.1,76,0.04,,---,0.24,VWS V14.01,2013-05-24 06:51:00,
2013-05-23 23:56:00,47.8,40.7,29.68,WSW,245,7.6,8.7,76,0.00,,---,0.24,VWS V14.01,2013-05-24 06:56:00,